This is the latest recevied weather packets stored in our database for station/object OE-11361. If no packets are shown the sender has not sent any weather packets the latest 10 day(s).
| Time | Temp. | Humidity | Pressure | Rain* | Wind** | Luminosity | Snow |
|---|---|---|---|---|---|---|---|
| 1787861477 | 20.56° C | 87% | 1013.3 hPa | 0 mm | - | 0 W/m² | - |
| 1787861104 | 20.56° C | 86% | 1013.2 hPa | 0 mm | - | 0 W/m² | - |
| 1787860504 | 21.11° C | 85% | 1013.1 hPa | 0 mm | - | 0 W/m² | - |
| 1787859678 | 21.11° C | 83% | 1013.2 hPa | 0 mm | - | 0 W/m² | - |
| 1787859304 | 21.11° C | 84% | 1013.2 hPa | 0 mm | - | 0 W/m² | - |
| 1787858704 | 21.67° C | 82% | 1013 hPa | 0 mm | - | 0 W/m² | - |
| 1787857877 | 21.67° C | 82% | 1012.8 hPa | 0 mm | - | 0 W/m² | - |
| 1787857504 | 21.67° C | 82% | 1012.9 hPa | 0 mm | - | 0 W/m² | - |
| 1787856904 | 22.22° C | 82% | 1013 hPa | 0 mm | - | 0 W/m² | - |
| 1787856077 | 22.22° C | 84% | 1012.9 hPa | 0 mm | - | 0 W/m² | - |
| 1787855703 | 22.22° C | 84% | 1012.7 hPa | 0 mm | - | 0 W/m² | - |
| 1787855104 | 22.22° C | 85% | 1012.5 hPa | 0 mm | - | 0 W/m² | - |
| 1787854277 | 22.78° C | 84% | 1012.4 hPa | 0 mm | - | 0 W/m² | - |
| 1787853904 | 23.33° C | 81% | 1012.1 hPa | 0 mm | - | 7 W/m² | - |
| 1787852716 | 23.89° C | 81% | 1012 hPa | 0 mm | - | 21 W/m² | - |
| 1787852103 | 23.89° C | 79% | 1011.9 hPa | 0 mm | - | 34 W/m² | - |
| 1787851504 | 24.44° C | 78% | 1011.9 hPa | 0 mm | - | 41 W/m² | - |
| 1787850677 | 24.44° C | 78% | 1011.8 hPa | 0 mm | - | 41 W/m² | - |
| 1787850304 | 25° C | 76% | 1011.9 hPa | 0 mm | - | 55 W/m² | - |
| 1787849704 | 25° C | 75% | 1011.9 hPa | 0 mm | - | 69 W/m² | - |
| 1787848877 | 25.56° C | 75% | 1011.8 hPa | 0 mm | - | 76 W/m² | - |
| 1787848504 | 25.56° C | 73% | 1011.7 hPa | 0 mm | - | 90 W/m² | - |
| 1787847904 | 26.11° C | 70% | 1011.7 hPa | 0 mm | - | 96 W/m² | - |
| 1787847077 | 26.67° C | 70% | 1011.6 hPa | 0 mm | - | 96 W/m² | - |
| 1787846704 | 26.67° C | 67% | 1011.6 hPa | 0 mm | - | 96 W/m² | - |
* Rain latest hour (hover to see other rain measurements)
** Current wind speed in m/s (hover to see current wind gust speed)